Kokomo, IN

10:54 AM EST on December 16, 2017 (GMT -0500)
Kokomo Municipal

Weather History for KOKK - October, 2012

Change the Weather History Date:

Monday, October 22, 2012

  Actual Average (KGUS) Record (KGUS)
Temperature  
Mean Temperature 57 °F -  
Max Temperature 66 °F 58 °F 78 °F (2017)
Min Temperature 48 °F 41 °F 26 °F (2013)
Degree Days  
Heating Degree Days 8    
Growing Degree Days 7 (Base 50)    
Moisture  
Dew Point 53 °F    
Average Humidity 82    
Maximum Humidity 94    
Minimum Humidity 64    
Precipitation  
Precipitation 0.00 in - - ()
Sea Level Pressure  
Sea Level Pressure 30.01 in    
Wind  
Wind Speed 7 mph (SSE)    
Max Wind Speed 14 mph    
Max Gust Speed 18 mph    
Visibility 10 miles    
Events Thunderstorm    
Averages and records for this station are not official NWS values.
T = Trace of Precipitation, MM = Missing Value Source: NWS Daily Summary

Daily Weather History Graph

Daily Weather History Graph

Search for Another Location

Airport or City:

Trip Planner

Search our weather history database for the weather conditions in past years. The results will help you decide how hot, cold, wet, or windy it might be!

Date:

Astronomy

Oct. 22, 2012 Rise Set
Actual Time 7:03 AM CDT 5:53 PM CDT
Civil Twilight 6:35 AM CDT 6:21 PM CDT
Nautical Twilight 6:03 AM CDT 6:52 PM CDT
Astronomical Twilight 5:32 AM CDT 7:24 PM CDT
Moon 2:02 PM CDT (10/22) No Moon Set
Length of Visible Light 11h 45m
Length of Day
10h 49m
First Quarter, 56% of the Moon is Illuminated
Oct 22
First Quarter
Oct 29
Full
Nov 6
Last Quarter
Nov 13
New
Nov 20
First Quarter

Hourly Weather History & Observations

Time (CDT) Temp. Dew Point Humidity Pressure Visibility Wind Dir Wind Speed Gust Speed Precip Events Conditions
12:15 AM 53.6 °F 46.4 °F 77% 30.04 in 10.0 mi SSE 5.8 mph - N/A   Clear
12:55 AM 53.6 °F 46.4 °F 77% 30.03 in 10.0 mi South 5.8 mph - N/A   Clear
1:35 AM 53.6 °F 46.4 °F 77% 30.03 in 10.0 mi South 6.9 mph - N/A   Partly Cloudy
1:55 AM 53.6 °F 46.4 °F 77% 30.03 in 10.0 mi South 5.8 mph - N/A   Clear
2:15 AM 53.6 °F 46.4 °F 77% 30.03 in 10.0 mi South 6.9 mph - N/A   Clear
2:35 AM 53.6 °F 46.4 °F 77% 30.03 in 10.0 mi South 6.9 mph - N/A   Clear
2:55 AM 53.6 °F 46.4 °F 77% 30.03 in 10.0 mi South 6.9 mph - N/A   Clear
3:15 AM 53.6 °F 46.4 °F 77% 30.03 in 10.0 mi South 6.9 mph - N/A   Clear
3:55 AM 51.8 °F 46.4 °F 82% 30.03 in 10.0 mi South 5.8 mph - N/A   Clear
4:15 AM 50.0 °F 44.6 °F 82% 30.03 in 10.0 mi South 3.5 mph - N/A   Clear
4:35 AM 48.2 °F 46.4 °F 93% 30.03 in 10.0 mi South 3.5 mph - N/A   Scattered Clouds
4:55 AM 51.8 °F 46.4 °F 82% 30.03 in 10.0 mi South 4.6 mph - N/A   Overcast
5:15 AM 53.6 °F 48.2 °F 82% 30.03 in 10.0 mi SSE 4.6 mph - N/A   Mostly Cloudy
5:35 AM 51.8 °F 48.2 °F 88% 30.03 in 10.0 mi SSE 4.6 mph - N/A   Mostly Cloudy
5:55 AM 51.8 °F 46.4 °F 82% 30.03 in 10.0 mi SSE 6.9 mph - N/A   Partly Cloudy
6:15 AM 51.8 °F 48.2 °F 88% 30.04 in 10.0 mi SSE 4.6 mph - N/A   Scattered Clouds
6:55 AM 55.4 °F 48.2 °F 77% 30.04 in 10.0 mi South 6.9 mph - N/A   Overcast
7:15 AM 55.4 °F 48.2 °F 77% 30.04 in 10.0 mi South 6.9 mph - N/A   Overcast
7:35 AM 55.4 °F 48.2 °F 77% 30.04 in 10.0 mi South 6.9 mph - N/A   Mostly Cloudy
7:55 AM 55.4 °F 50.0 °F 82% 30.05 in 10.0 mi South 8.1 mph - N/A   Mostly Cloudy
8:15 AM 57.2 °F 48.2 °F 72% 30.04 in 10.0 mi South 9.2 mph - N/A   Mostly Cloudy
8:35 AM 59.0 °F 51.8 °F 77% 30.04 in 10.0 mi South 9.2 mph - N/A   Mostly Cloudy
8:55 AM 60.8 °F 51.8 °F 72% 30.05 in 10.0 mi South 10.4 mph - N/A   Overcast
9:15 AM 62.6 °F 51.8 °F 68% 30.04 in 10.0 mi South 12.7 mph 16.1 mph N/A   Mostly Cloudy
9:35 AM 64.4 °F 53.6 °F 68% 30.04 in 10.0 mi South 11.5 mph 18.4 mph N/A   Partly Cloudy
9:55 AM 66.2 °F 53.6 °F 64% 30.04 in 10.0 mi South 13.8 mph - N/A   Clear
10:15 AM - - N/A% 30.02 in 10.0 mi South 12.7 mph 17.3 mph N/A   Clear
3:35 PM 62.6 °F 60.8 °F 94% 29.97 in 10.0 mi SSW 5.8 mph - N/A   Partly Cloudy
3:55 PM 62.6 °F 60.8 °F 94% 29.97 in 10.0 mi South 9.2 mph - N/A   Partly Cloudy
4:15 PM 62.6 °F 60.8 °F 94% 29.98 in 10.0 mi SSE 3.5 mph - N/A   Partly Cloudy
4:35 PM 62.6 °F 60.8 °F 94% 29.99 in 10.0 mi East 3.5 mph - N/A   Mostly Cloudy
4:55 PM 62.6 °F 60.8 °F 94% 29.98 in 10.0 mi East 3.5 mph - N/A   Mostly Cloudy
5:15 PM 62.6 °F 60.8 °F 94% 30.00 in 10.0 mi NNE 5.8 mph - N/A   Overcast
5:35 PM 62.6 °F 60.8 °F 94% 29.99 in 10.0 mi ENE 8.1 mph - N/A   Overcast
5:55 PM 62.6 °F 60.8 °F 94% 29.98 in 10.0 mi East 9.2 mph - N/A Thunderstorm Mostly Cloudy
6:15 PM 62.6 °F 60.8 °F 94% 29.96 in 10.0 mi ESE 11.5 mph - N/A   Mostly Cloudy
6:35 PM 62.6 °F 60.8 °F 94% 29.97 in 10.0 mi ESE 10.4 mph - N/A   Scattered Clouds
6:55 PM 62.6 °F 59.0 °F 88% 29.97 in 10.0 mi ESE 9.2 mph - N/A   Partly Cloudy
7:15 PM 62.6 °F 59.0 °F 88% 29.96 in 10.0 mi SE 8.1 mph - N/A   Scattered Clouds
7:35 PM 62.6 °F 59.0 °F 88% 29.96 in 10.0 mi SE 8.1 mph - N/A   Mostly Cloudy
7:55 PM 60.8 °F 57.2 °F 88% 29.97 in 10.0 mi SSE 5.8 mph - N/A   Scattered Clouds
8:15 PM 60.8 °F 57.2 °F 88% 29.97 in 10.0 mi SSE 6.9 mph - N/A   Mostly Cloudy
8:55 PM 62.6 °F 57.2 °F 82% 29.97 in 10.0 mi South 6.9 mph - N/A   Mostly Cloudy
9:15 PM 62.6 °F 57.2 °F 82% 29.96 in 10.0 mi South 10.4 mph - N/A   Overcast
9:35 PM 64.4 °F 57.2 °F 77% 29.96 in 10.0 mi South 10.4 mph - N/A   Overcast
9:55 PM 64.4 °F 57.2 °F 77% 29.96 in 10.0 mi SSW 9.2 mph - N/A   Overcast
10:15 PM 64.4 °F 57.2 °F 77% 29.97 in 10.0 mi SSW 9.2 mph - N/A   Overcast
10:35 PM 64.4 °F 55.4 °F 73% 29.97 in 10.0 mi SSW 8.1 mph - N/A   Overcast
10:55 PM 64.4 °F 55.4 °F 73% 29.97 in 10.0 mi South 8.1 mph - N/A   Overcast
11:15 PM 62.6 °F 55.4 °F 77% 29.97 in 10.0 mi South 8.1 mph - N/A   Overcast
11:35 PM 62.6 °F 55.4 °F 77% 29.97 in 10.0 mi South 6.9 mph - N/A   Overcast